Weather History for Juneau, AK

Change the Weather History Date:

Friday, November 16, 2012

  Actual Average Record
Temperature  
Mean Temperature 35 °F 33 °F  
Max Temperature 40 °F 37 °F 53 °F (2012)
Min Temperature 30 °F 29 °F 2 °F (1973)
Degree Days  
Heating Degree Days 30 32  
Month to date heating degree days 501 483  
Since 1 July heating degree days 2391 2168  
Moisture  
Dew Point 31 °F    
Average Humidity 85    
Maximum Humidity 100    
Minimum Humidity 70    
Precipitation  
Precipitation 0.13 in 0.20 in 1.60 in (1961)
Month to date precipitation 4.13 3.22  
Year to date precipitation 58.04 53.66  
Snow  
Snow 0.50 in 0.40 in 4.30 in (1959)
Month to date snowfall 6.7 5.2  
Since 1 July snowfall 8.1 6.0  
Since 1 September snowfall 8.1 6.0  
Snow Depth 0.00 in    
Sea Level Pressure  
Sea Level Pressure 29.41 in    
Wind  
Wind Speed 3 mph (West)    
Max Wind Speed 17 mph    
Max Gust Speed 22 mph    
Visibility 6 miles    
Events Fog , Rain , Snow    
T = Trace of Precipitation, MM = Missing Value Source: NWS Daily Summary

Daily Weather History Graph

Daily Weather History Graph

Search for Another Location

Airport:

Trip Planner

Search our weather history database for the weather conditions in past years. The results will help you decide how hot, cold, wet, or windy it might be!

Date:

Astronomy

Nov. 16, 2012 Rise Set
Actual Time 7:50 AM AKST 3:35 PM AKST
Civil Twilight 7:04 AM AKST 4:21 PM AKST
Nautical Twilight 6:14 AM AKST 5:10 PM AKST
Astronomical Twilight 5:27 AM AKST 5:57 PM AKST
Moon 11:03 AM AKST (11/16) 6:34 PM AKST (11/16)
Length of Visible Light 9h 17m
Length of Day
7h 44m
Waxing Crescent, 13% of the Moon is Illuminated
Nov 16
Waxing Crescent
Nov 20
First Quarter
Nov 28
Full
Dec 6
Last Quarter
Dec 12
New

Hourly Weather History & Observations

Time (AKST) Temp. Windchill Dew Point Humidity Pressure Visibility Wind Dir Wind Speed Gust Speed Precip Events Conditions
12:53 AM 32.0 °F - 32.0 °F 100% 29.47 in 10.0 mi Calm Calm - N/A   Mostly Cloudy
1:26 AM 32.0 °F - 30.2 °F 93% 29.44 in 10.0 mi Calm Calm - N/A   Mostly Cloudy
1:38 AM 30.2 °F - 30.2 °F 100% 29.43 in 0.5 mi Calm Calm - N/A Fog Light Freezing Fog
1:53 AM 30.9 °F - 30.9 °F 100% 29.42 in 0.2 mi Calm Calm - N/A Fog Light Freezing Fog
2:33 AM 30.2 °F - 30.2 °F 100% 29.39 in 10.0 mi Calm Calm - N/A   Mostly Cloudy
2:53 AM 30.9 °F - 30.9 °F 100% 29.39 in 4.0 mi Calm Calm - N/A   Overcast
3:53 AM 30.9 °F - 30.9 °F 100% 29.38 in 7.0 mi Calm Calm - N/A   Overcast
4:53 AM 32.0 °F - 32.0 °F 100% 29.37 in 10.0 mi Calm Calm - N/A   Overcast
5:53 AM 39.0 °F 33.4 °F 30.0 °F 70% 29.35 in 10.0 mi ESE 8.1 mph - N/A   Mostly Cloudy
6:53 AM 39.0 °F 33.4 °F 30.0 °F 70% 29.33 in 10.0 mi ESE 8.1 mph - N/A   Overcast
7:53 AM 39.0 °F 33.4 °F 30.9 °F 73% 29.32 in 10.0 mi ESE 8.1 mph - 0.00 in Rain Light Rain
8:53 AM 39.0 °F - 32.0 °F 76% 29.33 in 10.0 mi Calm Calm - 0.00 in Rain Light Rain
9:53 AM 36.0 °F 30.3 °F 33.1 °F 89% 29.32 in 10.0 mi WNW 6.9 mph - 0.00 in Rain Light Rain
10:53 AM 37.0 °F - 33.1 °F 86% 29.34 in 10.0 mi Calm Calm - 0.00 in Rain Light Rain
11:53 AM 36.0 °F 31.1 °F 32.0 °F 86% 29.36 in 4.0 mi West 5.8 mph - 0.00 in Rain , Snow Light Rain
12:32 PM 33.8 °F 27.7 °F 32.0 °F 93% 29.37 in 2.0 mi WSW 6.9 mph - 0.01 in Snow Light Snow
12:53 PM 33.1 °F 30.0 °F 32.0 °F 96% 29.38 in 2.0 mi SW 3.5 mph - 0.02 in Snow Light Snow
1:22 PM 33.8 °F - 32.0 °F 93% 29.39 in 2.0 mi Calm Calm - 0.02 in Snow Light Snow
1:53 PM 33.1 °F - 30.9 °F 92% 29.40 in 2.0 mi Calm Calm - 0.03 in Snow Light Snow
2:53 PM 33.1 °F - 32.0 °F 96% 29.42 in 2.0 mi Calm Calm - 0.03 in Snow Light Snow
3:41 PM 33.8 °F - 32.0 °F 93% 29.44 in 2.0 mi Calm Calm - 0.01 in Snow Light Snow
3:53 PM 33.1 °F - 32.0 °F 96% 29.45 in 2.0 mi Calm Calm - 0.01 in Snow Light Snow
4:31 PM 33.8 °F - 32.0 °F 93% 29.46 in 2.0 mi Calm Calm - 0.01 in Snow Light Snow
4:53 PM 32.0 °F - 32.0 °F 100% 29.46 in 2.0 mi Calm Calm - 0.02 in Snow Light Snow
5:53 PM 32.0 °F 28.7 °F 30.9 °F 96% 29.46 in 2.0 mi West 3.5 mph - 0.01 in Snow Light Snow
6:15 PM 32.0 °F 27.5 °F 30.2 °F 93% 29.46 in 3.0 mi WSW 4.6 mph - 0.00 in Snow Light Snow
6:41 PM 32.0 °F - 30.2 °F 93% 29.47 in 7.0 mi Calm Calm - 0.00 in   Overcast
6:53 PM 32.0 °F 28.7 °F 30.9 °F 96% 29.47 in 7.0 mi WSW 3.5 mph - 0.00 in   Overcast
7:53 PM 32.0 °F 28.7 °F 30.0 °F 92% 29.48 in 4.0 mi West 3.5 mph - 0.00 in Snow Light Snow
8:53 PM 32.0 °F 27.5 °F 28.9 °F 88% 29.47 in 7.0 mi West 4.6 mph - 0.00 in Snow Light Snow
9:21 PM 30.2 °F 24.3 °F 28.4 °F 93% 29.48 in 3.0 mi WNW 5.8 mph - 0.00 in Snow Light Snow
9:53 PM 30.9 °F 26.2 °F 28.9 °F 92% 29.48 in 4.0 mi NW 4.6 mph - 0.00 in Snow Light Snow
10:53 PM 30.9 °F 24.3 °F 28.0 °F 89% 29.47 in 8.0 mi West 6.9 mph - 0.01 in   Overcast
11:53 PM 30.0 °F 22.4 °F 27.0 °F 88% 29.47 in 10.0 mi West 8.1 mph - N/A   Overcast